Погода в Реддинге

США     40°35′06″N   122°23′33″W
темп.,
°C
ветер,
м/с
пор.,
м/с
влажн.,
%
обл.,
%
осадки,
мм/ч
давл.,
гПа
погр.,
м
21 октября, чт
чт2123:00+11ссз129099 0.5 102079
02:00+11всв1191100 0.3 101921
05:00+10св1196100 0.9 101948
08:00+11юв0096100 0.3 102061
11:00+11св1194100 0.4 1020220
14:00+11з0196100 1.6 1018160
17:00+11св1198100 7.0 1015116
20:00+11с0198100 3.4 101569
22 октября, пт
пт2223:00+12с0397100 5.2 1013215
02:00+15ю71495100 5.0 10081094
05:00+14ююз51097100 19.3 1007857
08:00+11з22863 4.2 101045
11:00+15ю455929 4.3 10131240
14:00+17ююв345256 0.4 10131528
17:00+16ююз245899 0.7 1012428
20:00+11з2285100 1.8 101432
23 октября, сб
сб2323:00+11зсз1186100 2.3 101311
02:00+10сз1187100 0.1 101313
05:00+9ссз1189100 0.1 101313
08:00+9ссз118971 0.0 101317
11:00+10юз2391100 1.8 1013288
14:00+10юз2388100 1.7 1012361
17:00+10юз1493100 3.1 1012370
20:00+10сз1194100 0.9 101160
24 октября, вс
вс2423:00+10юв1196100 1.4 1009130
02:00+10ююз1698100 1.6 1007543
05:00+10ююв3998100 6.9 1003846
08:00+10ююв61397100 12.8 10011120
11:00+10ю61796100 35.3 9991477
14:00+10ююз3997100 3.4 997760
17:00+11ю3797100 5.3 995446
20:00+11юз2594100 3.9 996209
25 октября, пн
пн2523:00+10зюз2385100 4.6 99681
02:00+9зюз1290100 1.3 99675
05:00+8з119091 2.1 99740
08:00+8ю2492100 0.1 999213
11:00+10ю41085100 0.8 1001791
14:00+10ю61284100 2.1 10011168
17:00+10ю61191100 6.1 1003741
20:00+10ю4994100 2.6 1007440